{"data":{"norad_id":42809,"intl_designator":"2017-039G","name":"IRIDIUM 126","alt_names":[],"object_type":"PAYLOAD","status":"ACTIVE","operator":null,"country":"US","launch_date":"2017-06-25","launch_site_code":"AFWTR","launch_vehicle":null,"mission":null,"orbit_class":"UNKNOWN","rcs_meters":null,"size_class":null,"mass_kg":null,"dimensions":null,"purposes":["comms"],"wikipedia_slug":null,"has_3d_model":false,"image_url":null,"decayed_at":null,"tle_current":{"epoch":"2026-05-25T03:00:02.871072Z","epoch_age_seconds":63703,"freshness":"FRESH","line1":"1 42809U 17039G   26145.12503323  .00000054  00000+0  12159-4 0  9990","line2":"2 42809  86.3986   3.2858 0002307  86.5725 273.5735 14.34217093466648","mean_motion":14.34217093,"eccentricity":0.0002307,"inclination_deg":86.3986,"raan_deg":3.2858,"arg_perigee_deg":86.5725,"mean_anomaly_deg":273.5735,"bstar":1.2159e-5,"rev_number":46664,"period_min":100.40321001808,"perigee_km":776.01849516394,"apogee_km":779.32018420908,"semimajor_km":7155.8063396865,"source":"CELESTRAK","updated_at":"2026-05-25T13:38:14.800983Z"}}}